owner,sensor,date,latitude,longitude,vertical_datum,direction_of_sea_water_velocity,sea_water_speed,upward_sea_water_velocity,qcFlag 
ADCP,ioos:station:wmo:42372:1,2017-09-01T00:16:00Z,27.7800,-90.5180,33.4,336.0,12.4,-1.8,'1111122,1111122,1111122' 
ADCP,ioos:station:wmo:42372:1,2017-09-01T01:16:00Z,27.7800,-90.5180,33.6,12.0,11.7,-1.5,'1111122,1111122,1111122' 
ADCP,ioos:station:wmo:42372:1,2017-09-01T02:16:00Z,27.7800,-90.5180,33.7,333.0,3.8,-1.1,'1111122,1111122,1111122' 
ADCP,ioos:station:wmo:42372:1,2017-09-01T03:16:00Z,27.7800,-90.5180,33.8,135.0,4.1,1.0,'1111122,1111122,1111122' 
ADCP,ioos:station:wmo:42372:1,2017-09-01T04:16:00Z,27.7800,-90.5180,33.8,130.0,7.7,-0.3,'1111122,1111122,1111122' 
ADCP,ioos:station:wmo:42372:1,2017-09-01T05:16:00Z,27.7800,-90.5180,34.0,304.0,5.3,-2.0,'1111122,1111122,1111122' 
ADCP,ioos:station:wmo:42372:1,2017-09-01T06:16:00Z,27.7800,-90.5180,34.1,153.0,3.7,-2.9,'1111122,1111122,1111122' 
ADCP,ioos:station:wmo:42372:1,2017-09-01T07:16:00Z,27.7800,-90.5180,34.1,90.0,3.9,-4.7,'1111122,1111122,1111122' 
ADCP,ioos:station:wmo:42372:1,2017-09-01T08:16:00Z,27.7800,-90.5180,34.1,127.0,13.7,-2.3,'1111122,1111122,1111122' 
ADCP,ioos:station:wmo:42372:1,2017-09-01T09:16:00Z,27.7800,-90.5180,34.3,258.0,5.4,-3.2,'1111122,1111122,1111122' 
ADCP,ioos:station:wmo:42372:1,2017-09-01T10:16:00Z,27.7800,-90.5180,34.1,229.0,14.4,-0.4,'1111122,1111122,1111122' 
ADCP,ioos:station:wmo:42372:1,2017-09-01T11:16:00Z,27.7800,-90.5180,34.2,170.0,12.4,-2.4,'1111122,1111122,1111122' 
ADCP,ioos:station:wmo:42372:1,2017-09-01T12:16:00Z,27.7800,-90.5180,34.2,166.0,11.3,-1.3,'1111122,1111122,1111122' 
ADCP,ioos:station:wmo:42372:1,2017-09-01T13:16:00Z,27.7800,-90.5180,34.0,135.0,17.5,-1.2,'1111122,1111122,1111122' 
ADCP,ioos:station:wmo:42372:1,2017-09-01T14:16:00Z,27.7800,-90.5180,34.2,125.0,20.4,0.8,'1111122,1111122,1111122' 
ADCP,ioos:station:wmo:42372:1,2017-09-01T15:16:00Z,27.7800,-90.5180,34.0,170.0,16.9,0.1,'1111122,1111122,1111122' 
ADCP,ioos:station:wmo:42372:1,2017-09-01T16:16:00Z,27.7800,-90.5180,33.9,157.0,22.0,0.7,'1111122,1111122,1111122' 
ADCP,ioos:station:wmo:42372:1,2017-09-01T17:17:00Z,27.7800,-90.5180,33.7,173.0,18.5,1.3,'1111122,1111122,1111122' 
ADCP,ioos:station:wmo:42372:1,2017-09-01T18:17:00Z,27.7800,-90.5180,33.8,170.0,40.7,2.3,'1111122,1111122,1111122' 
ADCP,ioos:station:wmo:42372:1,2017-09-01T19:17:00Z,27.7800,-90.5180,33.6,164.0,33.6,-1.3,'1111122,1111122,1111122' 
ADCP,ioos:station:wmo:42372:1,2017-09-01T20:17:00Z,27.7800,-90.5180,33.5,154.0,37.7,1.6,'1111122,1111122,1111122' 
ADCP,ioos:station:wmo:42372:1,2017-09-01T21:17:00Z,27.7800,-90.5180,33.8,150.0,24.7,3.5,'1111122,1111122,1111122' 
ADCP,ioos:station:wmo:42372:1,2017-09-01T22:17:00Z,27.7800,-90.5180,33.7,229.0,7.7,0.7,'1111122,1111122,1111122' 
ADCP,ioos:station:wmo:42372:1,2017-09-02T00:17:00Z,27.7800,-90.5180,33.8,293.0,15.9,-2.3,'1111122,1111122,1111122' 
ADCP,ioos:station:wmo:42372:1,2017-09-02T01:17:00Z,27.7800,-90.5180,33.5,328.0,14.9,-3.7,'1111122,1111122,1111122' 
ADCP,ioos:station:wmo:42372:1,2017-09-02T02:17:00Z,27.7800,-90.5180,33.7,325.0,7.3,-2.3,'1111122,1111122,1111122' 
ADCP,ioos:station:wmo:42372:1,2017-09-02T03:17:00Z,27.7800,-90.5180,33.7,318.0,3.9,-2.2,'1111122,1111122,1111122' 
ADCP,ioos:station:wmo:42372:1,2017-09-02T04:17:00Z,27.7800,-90.5180,33.6,312.0,4.3,-2.8,'1111122,1111122,1111122' 
ADCP,ioos:station:wmo:42372:1,2017-09-02T05:17:00Z,27.7800,-90.5180,33.5,270.0,2.9,-2.6,'1111122,1111122,1111122' 
ADCP,ioos:station:wmo:42372:1,2017-09-02T06:17:00Z,27.7800,-90.5180,33.6,262.0,4.1,-2.7,'1111122,1111122,1111122' 
ADCP,ioos:station:wmo:42372:1,2017-09-02T08:17:00Z,27.7800,-90.5180,33.5,186.0,4.0,-2.6,'1111122,1111122,1111122' 
ADCP,ioos:station:wmo:42372:1,2017-09-02T09:17:00Z,27.7800,-90.5180,33.5,207.0,9.4,-2.2,'1111122,1111122,1111122' 
ADCP,ioos:station:wmo:42372:1,2017-09-02T10:17:00Z,27.7800,-90.5180,33.6,223.0,16.8,-2.2,'1111122,1111122,1111122' 
ADCP,ioos:station:wmo:42372:1,2017-09-02T11:18:00Z,27.7800,-90.5180,33.3,193.0,23.6,2.4,'1111122,1111122,1111122' 
ADCP,ioos:station:wmo:42372:1,2017-09-02T12:18:00Z,27.7800,-90.5180,33.4,158.0,23.8,-0.9,'1111122,1111122,1111122' 
ADCP,ioos:station:wmo:42372:1,2017-09-02T13:18:00Z,27.7800,-90.5180,33.2,135.0,19.0,0.2,'1111122,1111122,1111122' 
ADCP,ioos:station:wmo:42372:1,2017-09-02T14:18:00Z,27.7800,-90.5180,33.2,140.0,30.5,2.9,'1111122,1111122,1111122' 
ADCP,ioos:station:wmo:42372:1,2017-09-02T15:18:00Z,27.7800,-90.5180,33.1,166.0,36.4,3.5,'1111122,1111122,1111122' 
ADCP,ioos:station:wmo:42372:1,2017-09-02T16:18:00Z,27.7800,-90.5180,33.1,172.0,34.2,1.4,'1111122,1111122,1111122' 
ADCP,ioos:station:wmo:42372:1,2017-09-02T17:18:00Z,27.7800,-90.5180,33.1,151.0,40.4,4.4,'1111122,1111122,1111122' 
ADCP,ioos:station:wmo:42372:1,2017-09-02T18:18:00Z,27.7800,-90.5180,33.1,146.0,32.6,4.8,'1111122,1111122,1111122' 
ADCP,ioos:station:wmo:42372:1,2017-09-02T19:18:00Z,27.7800,-90.5180,33.3,141.0,28.7,1.0,'1111122,1111122,1111122' 
ADCP,ioos:station:wmo:42372:1,2017-09-02T21:18:00Z,27.7800,-90.5180,33.2,150.0,12.2,0.9,'1111122,1111122,1111122' 
ADCP,ioos:station:wmo:42372:1,2017-09-02T22:18:00Z,27.7800,-90.5180,33.5,345.0,9.0,-2.2,'1111122,1111122,1111122' 
ADCP,ioos:station:wmo:42372:1,2017-09-02T23:18:00Z,27.7800,-90.5180,33.7,291.0,11.4,-2.8,'1111122,1111122,1111122' 
ADCP,ioos:station:wmo:42372:1,2017-09-03T00:18:00Z,27.7800,-90.5180,33.9,229.0,3.7,0.6,'1111122,1111122,1111122' 
ADCP,ioos:station:wmo:42372:1,2017-09-03T01:18:00Z,27.7800,-90.5180,34.0,196.0,11.2,-1.7,'1111122,1111122,1111122' 
ADCP,ioos:station:wmo:42372:1,2017-09-03T02:18:00Z,27.7800,-90.5180,34.1,184.0,14.2,-2.0,'1111122,1111122,1111122' 
ADCP,ioos:station:wmo:42372:1,2017-09-03T03:18:00Z,27.7800,-90.5180,34.1,196.0,10.7,-1.7,'1111122,1111122,1111122' 
ADCP,ioos:station:wmo:42372:1,2017-09-03T05:19:00Z,27.7800,-90.5180,34.3,163.0,15.2,1.5,'1111122,1111122,1111122' 
ADCP,ioos:station:wmo:42372:1,2017-09-03T06:19:00Z,27.7800,-90.5180,34.2,154.0,15.4,-0.7,'1111122,1111122,1111122' 
ADCP,ioos:station:wmo:42372:1,2017-09-03T07:19:00Z,27.7800,-90.5180,34.2,178.0,16.5,-2.1,'1111122,1111122,1111122' 
ADCP,ioos:station:wmo:42372:1,2017-09-03T08:19:00Z,27.7800,-90.5180,34.4,139.0,28.4,-0.6,'1111122,1111122,1111122' 
ADCP,ioos:station:wmo:42372:1,2017-09-03T09:19:00Z,27.7800,-90.5180,34.3,149.0,28.8,0.1,'1111122,1111122,1111122' 
ADCP,ioos:station:wmo:42372:1,2017-09-03T10:19:00Z,27.7800,-90.5180,34.1,148.0,37.9,2.2,'1111122,1111122,1111122' 
ADCP,ioos:station:wmo:42372:1,2017-09-03T11:19:00Z,27.7800,-90.5180,34.4,158.0,34.1,2.2,'1111122,1111122,1111122' 
ADCP,ioos:station:wmo:42372:1,2017-09-03T12:19:00Z,27.7800,-90.5180,34.1,150.0,29.1,3.2,'1111122,1111122,1111122' 
ADCP,ioos:station:wmo:42372:1,2017-09-03T13:19:00Z,27.7800,-90.5180,34.2,163.0,19.7,0.7,'1111122,1111122,1111122' 
ADCP,ioos:station:wmo:42372:1,2017-09-03T14:19:00Z,27.7800,-90.5180,34.1,126.0,2.4,-1.3,'1111122,1111122,1111122' 
ADCP,ioos:station:wmo:42372:1,2017-09-03T15:19:00Z,27.7800,-90.5180,34.4,327.0,4.5,-1.4,'1111122,1111122,1111122' 
ADCP,ioos:station:wmo:42372:1,2017-09-03T16:19:00Z,27.7800,-90.5180,34.1,12.0,7.7,-2.6,'1111122,1111122,1111122' 
ADCP,ioos:station:wmo:42372:1,2017-09-03T17:19:00Z,27.7800,-90.5180,34.1,308.0,3.4,-2.3,'1111122,1111122,1111122' 
ADCP,ioos:station:wmo:42372:1,2017-09-03T18:19:00Z,27.7800,-90.5180,33.9,318.0,11.5,-4.2,'1111122,1111122,1111122' 
ADCP,ioos:station:wmo:42372:1,2017-09-03T19:19:00Z,27.7800,-90.5180,34.0,329.0,5.2,-3.7,'1111122,1111122,1111122' 
ADCP,ioos:station:wmo:42372:1,2017-09-03T20:19:00Z,27.7800,-90.5180,34.0,339.0,7.4,-3.3,'1111122,1111122,1111122' 
ADCP,ioos:station:wmo:42372:1,2017-09-03T21:19:00Z,27.7800,-90.5180,34.0,353.0,7.0,-3.0,'1111122,1111122,1111122' 
ADCP,ioos:station:wmo:42372:1,2017-09-03T22:20:00Z,27.7800,-90.5180,34.0,336.0,10.3,-3.2,'1111122,1111122,1111122' 
ADCP,ioos:station:wmo:42372:1,2017-09-03T23:20:00Z,27.7800,-90.5180,34.0,333.0,2.2,-2.6,'1111122,1111122,1111122' 
ADCP,ioos:station:wmo:42372:1,2017-09-04T01:20:00Z,27.7800,-90.5180,34.1,307.0,4.9,-1.4,'1111122,1111122,1111122' 
ADCP,ioos:station:wmo:42372:1,2017-09-04T02:20:00Z,27.7800,-90.5180,34.0,325.0,1.9,-2.0,'1111122,1111122,1111122' 
ADCP,ioos:station:wmo:42372:1,2017-09-04T03:20:00Z,27.7800,-90.5180,34.3,106.0,1.5,-1.0,'1111122,1111122,1111122' 
ADCP,ioos:station:wmo:42372:1,2017-09-04T04:20:00Z,27.7800,-90.5180,34.3,360.0,1.9,-2.2,'1111122,1111122,1111122' 
ADCP,ioos:station:wmo:42372:1,2017-09-04T05:20:00Z,27.7800,-90.5180,34.0,333.0,2.0,-3.2,'1111122,1111122,1111122' 
ADCP,ioos:station:wmo:42372:1,2017-09-04T06:20:00Z,27.7800,-90.5180,34.2,282.0,4.0,-4.0,'1111122,1111122,1111122' 
ADCP,ioos:station:wmo:42372:1,2017-09-04T07:20:00Z,27.7800,-90.5180,34.2,242.0,8.6,-4.2,'1111122,1111122,1111122' 
ADCP,ioos:station:wmo:42372:1,2017-09-04T08:20:00Z,27.7800,-90.5180,34.0,227.0,9.1,-3.6,'1111122,1111122,1111122' 
ADCP,ioos:station:wmo:42372:1,2017-09-04T09:20:00Z,27.7800,-90.5180,34.3,315.0,1.3,-2.5,'1111122,1111122,1111122' 
ADCP,ioos:station:wmo:42372:1,2017-09-04T10:20:00Z,27.7800,-90.5180,33.9,281.0,3.3,-1.9,'1111122,1111122,1111122' 
ADCP,ioos:station:wmo:42372:1,2017-09-04T11:20:00Z,27.7800,-90.5180,34.1,277.0,5.0,-1.4,'1111122,1111122,1111122' 
ADCP,ioos:station:wmo:42372:1,2017-09-04T12:20:00Z,27.7800,-90.5180,34.3,11.0,2.6,-1.1,'1111122,1111122,1111122' 
ADCP,ioos:station:wmo:42372:1,2017-09-04T13:20:00Z,27.7800,-90.5180,34.3,352.0,11.2,-3.3,'1111122,1111122,1111122' 
ADCP,ioos:station:wmo:42372:1,2017-09-04T14:20:00Z,27.7800,-90.5180,34.2,8.0,4.8,-3.0,'1111122,1111122,1111122' 
ADCP,ioos:station:wmo:42372:1,2017-09-04T15:20:00Z,27.7800,-90.5180,34.2,4.0,3.2,-0.5,'1111122,1111122,1111122' 
ADCP,ioos:station:wmo:42372:1,2017-09-04T16:21:00Z,27.7800,-90.5180,34.5,34.0,2.3,-2.1,'1111122,1111122,1111122' 
ADCP,ioos:station:wmo:42372:1,2017-09-04T17:21:00Z,27.7800,-90.5180,34.1,309.0,1.4,-2.2,'1111122,1111122,1111122' 
ADCP,ioos:station:wmo:42372:1,2017-09-04T18:21:00Z,27.7800,-90.5180,34.4,266.0,5.4,-2.9,'1111122,1111122,1111122' 
ADCP,ioos:station:wmo:42372:1,2017-09-04T19:21:00Z,27.7800,-90.5180,34.1,297.0,7.4,-2.8,'1111122,1111122,1111122' 
ADCP,ioos:station:wmo:42372:1,2017-09-04T20:21:00Z,27.7800,-90.5180,34.2,14.0,4.9,-2.3,'1111122,1111122,1111122' 
ADCP,ioos:station:wmo:42372:1,2017-09-04T21:21:00Z,27.7800,-90.5180,34.1,4.0,6.8,-3.5,'1111122,1111122,1111122' 
ADCP,ioos:station:wmo:42372:1,2017-09-04T22:21:00Z,27.7800,-90.5180,34.2,3.0,6.8,-3.7,'1111122,1111122,1111122' 
ADCP,ioos:station:wmo:42372:1,2017-09-05T00:21:00Z,27.7800,-90.5180,34.0,252.0,5.7,-0.6,'1111122,1111122,1111122' 
ADCP,ioos:station:wmo:42372:1,2017-09-05T01:21:00Z,27.7800,-90.5180,33.9,311.0,3.2,-1.9,'1111122,1111122,1111122' 
ADCP,ioos:station:wmo:42372:1,2017-09-05T02:21:00Z,27.7800,-90.5180,33.9,214.0,1.4,-1.8,'1111122,1111122,1111122' 
ADCP,ioos:station:wmo:42372:1,2017-09-05T03:21:00Z,27.7800,-90.5180,34.1,283.0,0.9,-1.8,'1111122,1111122,1111122' 
ADCP,ioos:station:wmo:42372:1,2017-09-05T04:21:00Z,27.7800,-90.5180,34.2,268.0,3.2,-2.3,'1111122,1111122,1111122' 
ADCP,ioos:station:wmo:42372:1,2017-09-05T05:21:00Z,27.7800,-90.5180,34.3,247.0,3.0,-1.4,'1111122,1111122,1111122' 
ADCP,ioos:station:wmo:42372:1,2017-09-05T06:21:00Z,27.7800,-90.5180,34.2,284.0,4.1,-2.9,'1111122,1111122,1111122' 
ADCP,ioos:station:wmo:42372:1,2017-09-05T07:21:00Z,27.7800,-90.5180,34.0,253.0,5.4,-2.1,'1111122,1111122,1111122' 
ADCP,ioos:station:wmo:42372:1,2017-09-05T08:21:00Z,27.7800,-90.5180,34.3,198.0,5.5,-1.9,'1111122,1111122,1111122' 
ADCP,ioos:station:wmo:42372:1,2017-09-05T09:21:00Z,27.7800,-90.5180,34.2,111.0,0.9,-2.0,'1111122,1111122,1111122' 
ADCP,ioos:station:wmo:42372:1,2017-09-05T10:22:00Z,27.7800,-90.5180,34.3,175.0,7.5,-1.6,'1111122,1111122,1111122' 
ADCP,ioos:station:wmo:42372:1,2017-09-05T11:22:00Z,27.7800,-90.5180,34.2,167.0,12.7,-0.3,'1111122,1111122,1111122' 
ADCP,ioos:station:wmo:42372:1,2017-09-05T12:22:00Z,27.7800,-90.5180,34.3,131.0,14.5,-1.6,'1111122,1111122,1111122' 
ADCP,ioos:station:wmo:42372:1,2017-09-05T13:22:00Z,27.7800,-90.5180,34.0,170.0,16.4,1.4,'1111122,1111122,1111122' 
ADCP,ioos:station:wmo:42372:1,2017-09-05T14:22:00Z,27.7800,-90.5180,34.1,252.0,9.4,-3.2,'1111122,1111122,1111122' 
ADCP,ioos:station:wmo:42372:1,2017-09-05T15:22:00Z,27.7800,-90.5180,34.5,167.0,16.7,4.5,'1111122,1111122,1111122' 
ADCP,ioos:station:wmo:42372:1,2017-09-05T16:22:00Z,27.7800,-90.5180,34.1,203.0,8.9,1.0,'1111122,1111122,1111122' 
ADCP,ioos:station:wmo:42372:1,2017-09-05T17:22:00Z,27.7800,-90.5180,34.3,184.0,11.8,2.7,'1111122,1111122,1111122' 
ADCP,ioos:station:wmo:42372:1,2017-09-05T18:22:00Z,27.7800,-90.5180,34.1,348.0,8.5,-3.0,'1111122,1111122,1111122' 
ADCP,ioos:station:wmo:42372:1,2017-09-05T19:22:00Z,27.7800,-90.5180,34.1,358.0,6.1,-2.6,'1111122,1111122,1111122' 
ADCP,ioos:station:wmo:42372:1,2017-09-05T20:22:00Z,27.7800,-90.5180,33.9,12.0,5.0,-1.9,'1111122,1111122,1111122' 
ADCP,ioos:station:wmo:42372:1,2017-09-05T21:22:00Z,27.7800,-90.5180,34.3,53.0,5.0,-1.1,'1111122,1111122,1111122' 
ADCP,ioos:station:wmo:42372:1,2017-09-05T22:22:00Z,27.7800,-90.5180,34.0,15.0,4.3,-1.5,'1111122,1111122,1111122' 
ADCP,ioos:station:wmo:42372:1,2017-09-05T23:22:00Z,27.7800,-90.5180,34.0,84.0,10.1,-0.2,'1111122,1111122,1111122' 
ADCP,ioos:station:wmo:42372:1,2017-09-06T00:22:00Z,27.7800,-90.5180,34.1,46.0,7.2,-0.1,'1111122,1111122,1111122' 
ADCP,ioos:station:wmo:42372:1,2017-09-06T01:22:00Z,27.7800,-90.5180,34.1,346.0,6.5,-1.2,'1111122,1111122,1111122' 
ADCP,ioos:station:wmo:42372:1,2017-09-07T14:54:00Z,27.7800,-90.5180,26.5,325.0,3.9,-1.7,'1111122,1111122,1111122' 
ADCP,ioos:station:wmo:42372:1,2017-09-07T15:24:00Z,27.7800,-90.5180,26.5,325.0,10.8,-4.9,'1111122,1111122,1111122' 
ADCP,ioos:station:wmo:42372:1,2017-09-07T16:25:00Z,27.7800,-90.5180,26.6,324.0,12.6,-5.7,'1111122,1111122,1111122' 
ADCP,ioos:station:wmo:42372:1,2017-09-07T17:25:00Z,27.7800,-90.5180,26.6,327.0,2.7,-1.3,'1111122,1111122,1111122' 
ADCP,ioos:station:wmo:42372:1,2017-09-07T18:25:00Z,27.7800,-90.5180,26.6,326.0,5.2,-2.4,'1111122,1111122,1111122' 
ADCP,ioos:station:wmo:42372:1,2017-09-07T19:25:00Z,27.7800,-90.5180,26.6,326.0,2.5,-1.1,'1111122,1111122,1111122' 
ADCP,ioos:station:wmo:42372:1,2017-09-07T20:25:00Z,27.7800,-90.5180,26.6,321.0,2.7,-1.3,'1111122,1111122,1111122' 
ADCP,ioos:station:wmo:42372:1,2017-09-07T21:25:00Z,27.7800,-90.5180,26.5,326.0,2.5,-1.1,'1111122,1111122,1111122' 
ADCP,ioos:station:wmo:42372:1,2017-09-07T22:25:00Z,27.7800,-90.5180,26.4,326.0,15.8,-7.2,'1111122,1111122,1111122' 
ADCP,ioos:station:wmo:42372:1,2017-09-07T23:25:00Z,27.7800,-90.5180,26.4,322.0,7.1,-2.9,'1111122,1111122,1111122' 
ADCP,ioos:station:wmo:42372:1,2017-09-08T00:05:00Z,27.7800,-90.5180,26.5,320.0,4.5,-1.8,'1111122,1111122,1111122' 
ADCP,ioos:station:wmo:42372:1,2017-09-08T01:15:00Z,27.7800,-90.5180,26.3,320.0,1.6,-0.6,'1111122,1111122,1111122' 
ADCP,ioos:station:wmo:42372:1,2017-09-08T02:25:00Z,27.7800,-90.5180,26.4,319.0,3.3,-1.3,'1111122,1111122,1111122' 
ADCP,ioos:station:wmo:42372:1,2017-09-08T03:25:00Z,27.7800,-90.5180,26.3,320.0,3.4,-1.4,'1111122,1111122,1111122' 
ADCP,ioos:station:wmo:42372:1,2017-09-08T04:25:00Z,27.7800,-90.5180,26.3,320.0,3.3,-1.3,'1111122,1111122,1111122' 
ADCP,ioos:station:wmo:42372:1,2017-09-08T05:25:00Z,27.7800,-90.5180,26.3,323.0,3.6,-1.6,'1111122,1111122,1111122' 
ADCP,ioos:station:wmo:42372:1,2017-09-08T06:15:00Z,27.7800,-90.5180,26.3,315.0,1.7,-0.6,'1111122,1111122,1111122' 
ADCP,ioos:station:wmo:42372:1,2017-09-08T07:15:00Z,27.7800,-90.5180,26.3,322.0,1.8,-0.8,'1111122,1111122,1111122' 
ADCP,ioos:station:wmo:42372:1,2017-09-08T08:25:00Z,27.7800,-90.5180,26.2,321.0,5.0,-2.1,'1111122,1111122,1111122' 
ADCP,ioos:station:wmo:42372:1,2017-09-08T09:15:00Z,27.7800,-90.5180,26.2,320.0,3.4,-1.4,'1111122,1111122,1111122' 
ADCP,ioos:station:wmo:42372:1,2017-09-08T10:25:00Z,27.7800,-90.5180,26.3,326.0,2.9,-1.0,'1111122,1111122,1111122' 
ADCP,ioos:station:wmo:42372:1,2017-09-08T11:26:00Z,27.7800,-90.5180,26.3,322.0,2.9,-1.1,'1111122,1111122,1111122' 
ADCP,ioos:station:wmo:42372:1,2017-09-08T12:26:00Z,27.7800,-90.5180,26.3,323.0,8.9,-3.9,'1111122,1111122,1111122' 
ADCP,ioos:station:wmo:42372:1,2017-09-08T12:56:00Z,27.7800,-90.5180,26.6,326.0,2.7,-1.1,'1111122,1111122,1111122' 
ADCP,ioos:station:wmo:42372:1,2017-09-08T14:26:00Z,27.7800,-90.5180,26.2,354.0,2.9,-1.5,'1111122,1111122,1111122' 
ADCP,ioos:station:wmo:42372:1,2017-09-08T15:26:00Z,27.7800,-90.5180,26.2,333.0,6.1,-2.9,'1111122,1111122,1111122' 
ADCP,ioos:station:wmo:42372:1,2017-09-08T17:16:00Z,27.7800,-90.5180,26.5,327.0,14.4,-6.7,'1111122,1111122,1111122' 
ADCP,ioos:station:wmo:42372:1,2017-09-08T18:16:00Z,27.7800,-90.5180,26.6,327.0,10.6,-4.8,'1111122,1111122,1111122' 
ADCP,ioos:station:wmo:42372:1,2017-09-08T19:16:00Z,27.7800,-90.5180,26.5,323.0,11.0,-5.0,'1111122,1111122,1111122' 
ADCP,ioos:station:wmo:42372:1,2017-09-08T20:16:00Z,27.7800,-90.5180,26.4,326.0,4.2,-1.9,'1111122,1111122,1111122' 
ADCP,ioos:station:wmo:42372:1,2017-09-08T22:16:00Z,27.7800,-90.5180,26.4,321.0,9.1,-3.9,'1111122,1111122,1111122' 
ADCP,ioos:station:wmo:42372:1,2017-09-08T23:16:00Z,27.7800,-90.5180,26.3,318.0,3.0,-1.2,'1111122,1111122,1111122' 
ADCP,ioos:station:wmo:42372:1,2017-09-09T02:16:00Z,27.7800,-90.5180,26.4,322.0,4.9,-2.1,'1111122,1111122,1111122' 
ADCP,ioos:station:wmo:42372:1,2017-09-09T03:16:00Z,27.7800,-90.5180,26.3,326.0,15.1,-6.1,'1111122,1111122,1111122' 
ADCP,ioos:station:wmo:42372:1,2017-09-09T04:16:00Z,27.7800,-90.5180,26.2,322.0,6.3,-2.6,'1111122,1111122,1111122' 
ADCP,ioos:station:wmo:42372:1,2017-09-09T08:17:00Z,27.7800,-90.5180,26.2,322.0,12.8,-5.4,'1111122,1111122,1111122' 
ADCP,ioos:station:wmo:42372:1,2017-09-09T08:47:00Z,27.7800,-90.5180,26.3,326.0,3.0,-1.3,'1111122,1111122,1111122' 
ADCP,ioos:station:wmo:42372:1,2017-09-09T10:17:00Z,27.7800,-90.5180,26.4,323.0,8.3,-3.4,'1111122,1111122,1111122' 
ADCP,ioos:station:wmo:42372:1,2017-09-09T11:17:00Z,27.7800,-90.5180,26.4,323.0,11.5,-4.8,'1111122,1111122,1111122' 
ADCP,ioos:station:wmo:42372:1,2017-09-09T12:17:00Z,27.7800,-90.5180,26.3,329.0,7.8,-3.1,'1111122,1111122,1111122' 
ADCP,ioos:station:wmo:42372:1,2017-09-09T12:47:00Z,27.7800,-90.5180,26.3,324.0,22.0,-9.9,'1111122,1111122,1111122' 
ADCP,ioos:station:wmo:42372:1,2017-09-09T14:07:00Z,27.7800,-90.5180,26.1,337.0,2.8,-1.5,'1111122,1111122,1111122' 
ADCP,ioos:station:wmo:42372:1,2017-09-09T15:17:00Z,27.7800,-90.5180,26.1,281.0,3.6,0.1,'1111122,1111122,1111122' 
ADCP,ioos:station:wmo:42372:1,2017-09-09T16:17:00Z,27.7800,-90.5180,26.2,324.0,6.2,-2.9,'1111122,1111122,1111122' 
ADCP,ioos:station:wmo:42372:1,2017-09-09T17:17:00Z,27.7800,-90.5180,26.3,333.0,9.2,-4.6,'1111122,1111122,1111122' 
ADCP,ioos:station:wmo:42372:1,2017-09-09T18:17:00Z,27.7800,-90.5180,26.4,334.0,17.6,-8.5,'1111122,1111122,1111122' 
ADCP,ioos:station:wmo:42372:1,2017-09-09T19:17:00Z,27.7800,-90.5180,26.4,331.0,13.2,-6.6,'1111122,1111122,1111122' 
ADCP,ioos:station:wmo:42372:1,2017-09-09T20:17:00Z,27.7800,-90.5180,26.5,330.0,4.6,-2.2,'1111122,1111122,1111122' 
ADCP,ioos:station:wmo:42372:1,2017-09-09T20:47:00Z,27.7800,-90.5180,26.5,331.0,8.7,-4.1,'1111122,1111122,1111122' 
ADCP,ioos:station:wmo:42372:1,2017-09-09T22:17:00Z,27.7800,-90.5180,26.5,328.0,7.9,-3.7,'1111122,1111122,1111122' 
ADCP,ioos:station:wmo:42372:1,2017-09-09T23:17:00Z,27.7800,-90.5180,26.4,327.0,2.4,-0.9,'1111122,1111122,1111122' 
ADCP,ioos:station:wmo:42372:1,2017-09-10T02:18:00Z,27.7800,-90.5180,26.4,326.0,1.4,-0.6,'1111122,1111122,1111122' 
ADCP,ioos:station:wmo:42372:1,2017-09-10T02:38:00Z,27.7800,-90.5180,26.4,324.0,1.4,-0.5,'1111122,1111122,1111122' 
ADCP,ioos:station:wmo:42372:1,2017-09-10T04:18:00Z,27.7800,-90.5180,26.3,324.0,4.8,-2.2,'1111122,1111122,1111122' 
ADCP,ioos:station:wmo:42372:1,2017-09-10T05:18:00Z,27.7800,-90.5180,26.4,321.0,9.0,-3.8,'1111122,1111122,1111122' 
ADCP,ioos:station:wmo:42372:1,2017-09-10T06:18:00Z,27.7800,-90.5180,26.2,321.0,4.6,-2.0,'1111122,1111122,1111122' 
ADCP,ioos:station:wmo:42372:1,2017-09-10T07:18:00Z,27.7800,-90.5180,26.6,325.0,6.0,-2.5,'1111122,1111122,1111122' 
ADCP,ioos:station:wmo:42372:1,2017-09-10T08:18:00Z,27.7800,-90.5180,26.5,328.0,3.1,-1.3,'1111122,1111122,1111122' 
ADCP,ioos:station:wmo:42372:1,2017-09-10T09:18:00Z,27.7800,-90.5180,26.5,324.0,6.1,-2.5,'1111122,1111122,1111122' 
ADCP,ioos:station:wmo:42372:1,2017-09-10T10:18:00Z,27.7800,-90.5180,26.3,323.0,9.3,-4.1,'1111122,1111122,1111122' 
ADCP,ioos:station:wmo:42372:1,2017-09-10T11:18:00Z,27.7800,-90.5180,26.4,321.0,4.5,-1.8,'1111122,1111122,1111122' 
ADCP,ioos:station:wmo:42372:1,2017-09-10T12:18:00Z,27.7800,-90.5180,26.5,326.0,11.2,-4.9,'1111122,1111122,1111122' 
ADCP,ioos:station:wmo:42372:1,2017-09-10T13:18:00Z,27.7800,-90.5180,26.4,327.0,8.2,-3.8,'1111122,1111122,1111122' 
ADCP,ioos:station:wmo:42372:1,2017-09-10T14:18:00Z,27.7800,-90.5180,26.2,343.0,7.7,-4.3,'1111122,1111122,1111122' 
ADCP,ioos:station:wmo:42372:1,2017-09-10T15:48:00Z,27.7800,-90.5180,26.5,335.0,5.4,-2.7,'1111122,1111122,1111122' 
ADCP,ioos:station:wmo:42372:1,2017-09-10T17:18:00Z,27.7800,-90.5180,26.5,331.0,10.8,-5.2,'1111122,1111122,1111122' 
ADCP,ioos:station:wmo:42372:1,2017-09-10T18:18:00Z,27.7800,-90.5180,26.5,328.0,14.8,-7.0,'1111122,1111122,1111122' 
ADCP,ioos:station:wmo:42372:1,2017-09-10T19:19:00Z,27.7800,-90.5180,26.5,326.0,32.5,-14.8,'1111122,1111122,1111122' 
ADCP,ioos:station:wmo:42372:1,2017-09-10T20:19:00Z,27.7800,-90.5180,26.6,324.0,25.9,-11.7,'1111122,1111122,1111122' 
ADCP,ioos:station:wmo:42372:1,2017-09-10T21:19:00Z,27.7800,-90.5180,26.3,321.0,9.0,-4.0,'1111122,1111122,1111122' 
ADCP,ioos:station:wmo:42372:1,2017-09-10T21:49:00Z,27.7800,-90.5180,26.4,323.0,15.9,-7.0,'1111122,1111122,1111122' 
ADCP,ioos:station:wmo:42372:1,2017-09-10T23:19:00Z,27.7800,-90.5180,26.4,322.0,7.6,-3.2,'1111122,1111122,1111122' 
ADCP,ioos:station:wmo:42372:1,2017-09-11T00:19:00Z,27.7800,-90.5180,26.5,322.0,11.5,-5.0,'1111122,1111122,1111122' 
ADCP,ioos:station:wmo:42372:1,2017-09-11T02:19:00Z,27.7800,-90.5180,26.4,327.0,3.1,-1.3,'1111122,1111122,1111122' 
ADCP,ioos:station:wmo:42372:1,2017-09-11T02:49:00Z,27.7800,-90.5180,26.5,327.0,3.0,-1.3,'1111122,1111122,1111122' 
ADCP,ioos:station:wmo:42372:1,2017-09-11T04:19:00Z,27.7800,-90.5180,26.3,323.0,3.1,-1.3,'1111122,1111122,1111122' 
ADCP,ioos:station:wmo:42372:1,2017-09-11T05:19:00Z,27.7800,-90.5180,26.2,321.0,3.2,-1.3,'1111122,1111122,1111122' 
ADCP,ioos:station:wmo:42372:1,2017-09-11T06:19:00Z,27.7800,-90.5180,26.3,325.0,1.6,-0.5,'1111122,1111122,1111122' 
ADCP,ioos:station:wmo:42372:1,2017-09-11T07:09:00Z,27.7800,-90.5180,26.3,317.0,3.4,-1.3,'1111122,1111122,1111122' 
ADCP,ioos:station:wmo:42372:1,2017-09-11T08:19:00Z,27.7800,-90.5180,26.4,317.0,1.8,-0.7,'1111122,1111122,1111122' 
ADCP,ioos:station:wmo:42372:1,2017-09-11T11:19:00Z,27.7800,-90.5180,25.9,358.0,6.6,-0.7,'1111122,1111122,1111122' 
ADCP,ioos:station:wmo:42372:1,2017-09-11T12:09:00Z,27.7800,-90.5180,26.0,315.0,1.8,-0.7,'1111122,1111122,1111122' 
ADCP,ioos:station:wmo:42372:1,2017-09-11T12:49:00Z,27.7800,-90.5180,26.3,318.0,9.1,-3.8,'1111122,1111122,1111122' 
ADCP,ioos:station:wmo:42372:1,2017-09-11T14:20:00Z,27.7800,-90.5180,26.4,324.0,20.8,-9.5,'1111122,1111122,1111122' 
ADCP,ioos:station:wmo:42372:1,2017-09-11T14:50:00Z,27.7800,-90.5180,26.5,327.0,22.6,-11.1,'1111122,1111122,1111122' 
ADCP,ioos:station:wmo:42372:1,2017-09-11T16:20:00Z,27.7800,-90.5180,26.3,320.0,34.2,-14.7,'1111122,1111122,1111122' 
ADCP,ioos:station:wmo:42372:1,2017-09-11T17:20:00Z,27.7800,-90.5180,26.2,319.0,21.1,-8.5,'1111122,1111122,1111122' 
ADCP,ioos:station:wmo:42372:1,2017-09-11T18:20:00Z,27.7800,-90.5180,26.3,317.0,8.8,-3.0,'1111122,1111122,1111122' 
ADCP,ioos:station:wmo:42372:1,2017-09-11T19:20:00Z,27.7800,-90.5180,26.2,316.0,11.5,-4.5,'1111122,1111122,1111122' 
ADCP,ioos:station:wmo:42372:1,2017-09-11T20:20:00Z,27.7800,-90.5180,26.3,312.0,13.0,-4.5,'1111122,1111122,1111122' 
ADCP,ioos:station:wmo:42372:1,2017-09-11T22:20:00Z,27.7800,-90.5180,26.2,318.0,19.3,-7.8,'1111122,1111122,1111122' 